sat.trackr.live / text

‹ back to catalog

HULIANWANG DIGUI-100

NORAD 66416 · 2025-258E

PAYLOAD ACTIVE UNKNOWN

§ Identity

Operator
Country
PRC
Launch date
2025-11-10
Launch site
WSC
Launch vehicle
Mass (kg)
RCS (m²)

External: N2YO · Heavens-Above · Gunter

§ Orbital elements

Epoch: 2026-05-24T21:59:46.234176Z

Period
108.33 min
Inclination
50.0068°
Eccentricity
0.0000940
Mean motion
13.29319490 rev/d
Perigee alt
1,148.6 km
Apogee alt
1,150.0 km
Semi-major
7,527.5 km
B*
9.3071e-5
RAAN
19.2553°
Arg perigee
62.5987°
Mean anomaly
297.4980°
Rev number
2,664

§ Raw data

HULIANWANG DIGUI-1001 66416U 25258E   26144.91650734 -.00000081  00000+0  93071-4 0  99902 66416  50.0068  19.2553 0000940  62.5987 297.4980 13.29319490 26647

JSON: /api/v1/satellites/66416 · /tle

For live sub-satellite position, see the globe view (requires WebGL).

§ Visibility from observer

Set your observer location to see the next 7 days of passes ≥ 10°. The values pass through the URL so the page stays shareable.

No JS? Fill the form by hand. The geolocation button needs JavaScript.